CW2989 Weather Reports


Display with metric or nautical units.
time (UTC)temp
F
wind
direction
speed
MPH
gust
MPH
rain 1hr
in
rain 24hr
in
rain mn
in
humidity
%
barometer
mb
20210806024842 76 248 0.0 4.0 0.00 0.01 0.01 85 1000.9
20210806023819 76 240 1.0 5.0 0.00 0.01 0.01 84 1000.8
20210806022757 77 256 1.0 5.0 0.00 0.01 0.01 84 1000.7
20210806021810 77 241 1.0 5.0 0.00 0.01 0.01 83 1000.7
20210806020812 77 262 2.0 8.0 0.00 0.01 0.01 82 1000.4
20210806015758 78 230 3.0 8.0 0.00 0.01 0.01 82 1000.6
20210806014818 78 240 2.0 7.0 0.00 0.01 0.01 81 1000.6
20210806013838 79 263 3.0 7.0 0.00 0.01 0.01 79 1000.6
20210806012819 79 244 2.0 6.0 0.00 0.01 0.01 78 1000.6
20210806011810 79 233 2.0 5.0 0.00 0.01 0.01 77 1000.6
20210806010802 80 240 2.0 8.0 0.00 0.01 0.01 76 1000.4
20210806005800 80 232 1.0 8.0 0.00 0.01 0.01 75 1000.3
20210806004757 80 238 2.0 8.0 0.00 0.01 0.01 76 1000.3
20210806003821 81 229 2.0 8.0 0.00 0.01 0.01 76 1000.0
20210806002808 81 239 2.0 8.0 0.00 0.01 0.01 75 999.8
20210806001817 81 209 2.0 9.0 0.00 0.01 0.01 73 999.8
20210806000842 82 221 3.0 9.0 0.00 0.01 0.01 74 999.8
20210805235814 82 221 1.0 8.0 0.00 0.01 0.01 74 999.7
20210805234836 82 252 1.0 3.0 0.00 0.01 0.01 73 999.7
20210805233835 82 238 0.0 3.0 0.00 0.01 0.01 77 999.6
20210805232840 82 236 1.0 5.0 0.00 0.01 0.01 77 999.8
20210805231831 82 252 1.0 5.0 0.00 0.01 0.01 75 999.8
20210805230837 82 241 1.0 5.0 0.00 0.01 0.01 74 999.8
20210805225829 82 233 2.0 7.0 0.00 0.01 0.01 76 999.8
20210805224831 82 245 2.0 7.0 0.00 0.01 0.01 75 999.8
20210805223851 83 251 2.0 6.0 0.00 0.01 0.01 73 999.8
20210805222908 83 236 2.0 8.0 0.00 0.01 0.01 73 999.8
20210805221836 84 252 2.0 8.0 0.00 0.01 0.01 72 999.8
20210805220853 84 200 2.0 8.0 0.00 0.01 0.01 77 999.8
20210805215826 84 204 1.0 8.0 0.00 0.01 0.01 75 999.8
20210805214836 84 257 2.0 8.0 0.00 0.01 0.01 76 999.8
20210805213902 84 211 1.0 5.0 0.00 0.01 0.01 74 999.9
20210805212855 83 264 1.0 5.0 0.00 0.01 0.01 76 1000.2
20210805211854 83 257 1.0 5.0 0.00 0.01 0.01 75 1000.2
20210805210854 83 258 1.0 5.0 0.00 0.01 0.01 77 1000.3
20210805205916 83 249 2.0 5.0 0.00 0.01 0.01 76 1000.3
20210805204929 83 255 2.0 7.0 0.00 0.01 0.01 77 1000.4
20210805203902 83 237 2.0 7.0 0.00 0.01 0.01 76 1000.8
20210805202918 82 243 2.0 6.0 0.00 0.01 0.01 78 1000.8
20210805201857 82 238 1.0 5.0 0.00 0.01 0.01 79 1000.8
20210805200833 82 242 0.0 3.0 0.00 0.01 0.01 79 1000.9
20210805195829 82 149 0.0 5.0 0.00 0.01 0.01 80 1001.1
20210805194823 81 269 1.0 5.0 0.00 0.01 0.01 80 1001.1
20210805193830 81 205 0.0 5.0 0.00 0.01 0.01 82 1001.4
20210805192816 80 238 2.0 5.0 0.00 0.01 0.01 82 1001.8
20210805191839 80 251 1.0 4.0 0.00 0.01 0.01 86 1001.8
20210805190812 80 248 1.0 6.0 0.00 0.01 0.01 87 1001.8
20210805185823 79 249 2.0 6.0 0.00 0.01 0.01 87 1001.9
20210805184751 79 233 0.0 5.0 0.00 0.01 0.01 86 1001.9
20210805183740 79 259 0.0 4.0 0.00 0.01 0.01 88 1002.4
20210805182724 79 238 1.0 4.0 0.00 0.01 0.01 87 1002.5
20210805181728 79 246 0.0 2.0 0.00 0.01 0.01 86 1002.5
20210805180735 79 242 1.0 3.0 0.00 0.01 0.01 87 1002.9
20210805175707 79 248 1.0 3.0 0.00 0.01 0.01 87 1002.9
20210805174729 79 144 0.0 3.0 0.00 0.01 0.01 86 1002.9
20210805173701 79 191 1.0 5.0 0.00 0.01 0.01 87 1003.0
20210805172712 79 248 0.0 3.0 0.00 0.01 0.01 86 1003.1
20210805171712 79 259 0.0 3.0 0.00 0.01 0.01 86 1003.1
20210805170721 79 242 0.0 4.0 0.00 0.01 0.01 86 1003.3
20210805165713 79 248 0.0 6.0 0.00 0.01 0.01 86 1003.4
20210805164703 79 242 1.0 6.0 0.00 0.01 0.01 86 1003.4
20210805163654 79 248 1.0 4.0 0.00 0.01 0.01 86 1003.4
20210805162620 79 258 0.0 4.0 0.00 0.01 0.01 86 1003.4
20210805161623 78 248 0.0 3.0 0.00 0.01 0.01 86 1003.4
20210805160642 78 248 0.0 3.0 0.00 0.01 0.01 86 1003.0
20210805155648 78 246 1.0 3.0 0.00 0.01 0.01 85 1002.9
20210805154706 78 232 0.0 2.0 0.00 0.01 0.01 87 1002.9
20210805153718 78 232 0.0 3.0 0.00 0.01 0.01 88 1002.9
20210805152724 78 231 0.0 2.0 0.00 0.01 0.01 89 1002.8
20210805151709 77 236 0.0 2.0 0.00 0.01 0.01 89 1002.8
20210805150728 77 189 0.0 2.0 0.00 0.01 0.01 90 1002.6
20210805145722 77 219 0.0 1.0 0.00 0.01 0.01 90 1002.4
20210805144724 76 219 0.0 4.0 0.00 0.01 0.01 90 1002.4
20210805143657 76 133 0.0 4.0 0.00 0.01 0.01 90 1002.4
20210805142629 76 142 0.0 4.0 0.00 0.01 0.01 90 1002.4
20210805141555 76 248 1.0 4.0 0.00 0.01 0.01 92 1002.4
20210805140547 75 245 1.0 4.0 0.00 0.01 0.01 92 1002.4
20210805135536 75 214 0.0 1.0 0.00 0.01 0.01 94 1002.4
20210805134533 75 214 0.0 2.0 0.00 0.01 0.01 94 1002.4
20210805133549 75 267 0.0 2.0 0.00 0.01 0.01 95 1002.2
20210805132554 74 169 0.0 1.0 0.00 0.01 0.01 96 1001.9
20210805131541 74 168 0.0 2.0 0.00 0.01 0.01 96 1001.9
20210805130523 73 142 0.0 3.0 0.00 0.01 0.01 97 1001.7
20210805125527 73 140 0.0 3.0 0.00 0.01 0.01 97 1001.4
20210805124520 73 166 0.0 0.0 0.00 0.01 0.01 97 1001.4
20210805123509 73 171 0.0 1.0 0.00 0.01 0.01 97 1001.4
20210805122458 72 171 0.0 0.0 0.00 0.01 0.01 97 1001.4
20210805121424 72 171 0.0 1.0 0.00 0.01 0.01 96 1001.4
20210805120423 72 171 0.0 0.0 0.00 0.01 0.01 96 1001.1
20210805115414 72 171 0.0 1.0 0.00 0.01 0.01 96 1000.9
20210805114413 72 171 0.0 0.0 0.00 0.01 0.01 96 1000.9
20210805113353 72 171 0.0 0.0 0.00 0.01 0.01 96 1000.7
20210805112358 72 171 0.0 0.0 0.00 0.01 0.01 96 1000.5
20210805111340 72 171 0.0 0.0 0.00 0.01 0.01 96 1000.7
20210805110326 72 171 1.0 3.0 0.00 0.01 0.01 96 1000.7
20210805105332 72 262 0.0 1.0 0.00 0.01 0.01 96 1000.8
20210805104349 72 262 0.0 1.0 0.00 0.01 0.01 95 1000.8
20210805103315 72 262 0.0 0.0 0.00 0.01 0.01 95 1000.8
20210805102316 72 262 0.0 0.0 0.00 0.01 0.01 95 1000.9
20210805101323 72 261 0.0 0.0 0.00 0.01 0.01 95 1000.8
20210805100256 72 259 0.0 0.0 0.00 0.00 0.00 95 1000.8
20210805095238 72 257 0.0 0.0 0.00 0.00 0.00 94 1000.9
20210805094222 72 255 0.0 0.0 0.00 0.00 0.00 94 1000.6
20210805093152 73 255 0.0 0.0 0.00 0.00 0.00 94 1000.6
20210805092124 73 255 0.0 0.0 0.00 0.00 0.00 94 1000.5
20210805091125 73 255 0.0 0.0 0.00 0.00 0.00 94 1000.3
20210805090052 73 255 0.0 0.0 0.00 0.00 0.00 94 1000.3
20210805085112 73 255 0.0 0.0 0.00 0.00 0.00 94 1000.4
20210805084128 73 255 0.0 0.0 0.00 0.00 0.00 93 1000.4
20210805083101 73 255 0.0 0.0 0.00 0.00 0.00 94 1000.4
20210805082036 73 255 0.0 0.0 0.00 0.00 0.00 93 1000.4
20210805081100 73 255 0.0 0.0 0.00 0.00 0.00 93 1000.4
20210805080111 73 255 0.0 0.0 0.00 0.00 0.00 93 1000.4
20210805075109 73 255 0.0 0.0 0.00 0.00 0.00 93 1000.4
20210805074040 73 255 0.0 0.0 0.00 0.00 0.00 93 1000.6
20210805073036 73 255 0.0 0.0 0.00 0.00 0.00 93 1000.6
20210805072028 73 255 0.0 0.0 0.00 0.00 0.00 92 1000.8
20210805071037 73 255 0.0 0.0 0.00 0.00 0.00 92 1000.8
20210805070033 73 255 0.0 0.0 0.00 0.00 0.00 92 1000.8
20210805064958 73 255 0.0 0.0 0.00 0.00 0.00 91 1000.8
20210805063929 74 255 0.0 0.0 0.00 0.00 0.00 91 1000.9
20210805062944 74 255 0.0 0.0 0.00 0.00 0.00 90 1000.9
20210805061948 74 255 0.0 0.0 0.00 0.00 0.00 91 1001.1
20210805060953 74 255 0.0 0.0 0.00 0.00 0.00 90 1001.2
20210805055944 74 255 0.0 0.0 0.00 0.00 0.00 90 1001.2
20210805054947 74 255 0.0 0.0 0.00 0.00 0.00 89 1001.2
20210805053913 74 255 0.0 0.0 0.00 0.00 0.00 89 1001.3
20210805052937 75 255 0.0 0.0 0.00 0.00 0.00 88 1001.3
20210805051933 75 255 0.0 0.0 0.00 0.00 0.00 88 1001.2
20210805050915 75 255 0.0 0.0 0.00 0.00 0.00 87 1001.1
20210805045918 75 255 0.0 0.0 0.00 0.00 0.00 86 1001.1
20210805044930 76 255 0.0 0.0 0.00 0.00 0.00 86 1000.9
20210805043939 76 255 0.0 0.0 0.00 0.00 0.00 85 1001.0
20210805042937 76 255 0.0 0.0 0.00 0.00 0.00 85 1001.0
20210805042000 76 255 0.0 0.0 0.00 0.00 0.00 85 1000.8
20210805040948 76 255 0.0 0.0 0.00 0.00 0.00 85 1000.8
20210805035914 77 255 0.0 0.0 0.00 0.00 0.00 83 1000.8
20210805034909 77 255 0.0 0.0 0.00 0.00 0.00 82 1000.6
20210805033906 78 255 0.0 0.0 0.00 0.00 0.00 81 1000.3
20210805032903 78 255 0.0 0.0 0.00 0.00 0.00 81 1000.1
20210805031919 78 255 0.0 0.0 0.00 0.00 0.00 80 1000.1
20210805030927 79 255 0.0 0.0 0.00 0.00 0.00 79 1000.1
20210805025949 79 255 0.0 0.0 0.00 0.00 0.00 78 1000.1